Regional Weather Roundup
Issued by NWS New Orleans/Baton Rouge, LA

Home | Current Version | Previous Version | Text Only | Print | Product List | Glossary On
Versions: 1 2 3 4 5 6 7 8 9 10 11 12 13 14 15 16 17 18 19 20 21 22 23 24 25 26 27 28 29 30 31 32 33 34 35 36 37 38 39 40 41 42 43 44 45 46 47 48 49 50
000
ASUS44 KLIX 231210
RWRLIX
NEW ORLEANS REGIONAL WEATHER ROUNDUP
NATIONAL WEATHER SERVICE NEW ORLEANS LA
700 AM CDT WED APR 23 2014

NOTE: "FAIR" INDICATES FEW OR NO CLOUDS BELOW 12,000 FEET WITH NO
      SIGNIFICANT WEATHER AND/OR OBSTRUCTIONS TO VISIBILITY.
      SKY/WX - SKY CONDITION AND SIGNIFICANT WEATHER.
      TMP - AIR TEMPERATURE.     DP    - DEWPOINT TEMPERATURE.
      RH  - RELATIVE HUMIDITY.   PRES  - PRESSURE.
      HI  - HEAT INDEX.          WCI   - WIND CHILL INDEX.

*  THESE STATIONS ARE NOT NWS OR FAA STATIONS AND ARE NOT UNDER
   NWS QUALITY CONTROL.

LAZ038-040-048-061>063-065>067-069-231300-
SOUTHEAST LOUISIANA

CITY           SKY/WX    TMP DP  RH WIND       PRES   REMARKS
N.O. AUDUBON     N/A     61  61 100 MISG        N/A
6HR MIN TEMP:  61; 6HR MAX TEMP:  66;

N.O. INTL ARPT CLEAR     62  62 100 NW3       29.97R
6HR MIN TEMP:  61; 6HR MAX TEMP:  67;

N.O. LAKEFRONT CLEAR     68  63  84 N9        29.97R
6HR MIN TEMP:  65; 6HR MAX TEMP:  69;

N.O. DOWNTOWN*   N/A     66  61  82 CALM      29.98R
6HR MIN TEMP:  66; 6HR MAX TEMP:  70;

SLIDELL        CLEAR     58  55  90 CALM      29.97R
6HR MIN TEMP:  56; 6HR MAX TEMP:  61;

BATON ROUGE    CLEAR     59  56  89 CALM      29.98R
6HR MIN TEMP:  58; 6HR MAX TEMP:  63;

BOOTHVILLE     CLEAR     64  64 100 CALM      29.96R FOG
6HR MIN TEMP:  63; 6HR MAX TEMP:  67;

BELLE CHASSE   FOG       59  55  88 CALM      29.96R VSB 1
6HR MIN TEMP:  57; 6HR MAX TEMP:  62;

BOGALUSA*        N/A     57  54  91 CALM      29.98R
6HR MIN TEMP:  55; 6HR MAX TEMP:  60;

GALLIANO*      SUNNY     53  53  97 CALM      29.97R FOG
6HR MIN TEMP:  53; 6HR MAX TEMP:  63;

NEW ROADS*       N/A     56  56  99 CALM      29.98R FOG
6HR MIN TEMP:  56; 6HR MAX TEMP:  61;

GONZALES*        N/A     57  57 100 CALM      29.97R FOG
6HR MIN TEMP:  57; 6HR MAX TEMP:  62;

HAMMOND*       CLEAR     57  54  88 CALM      29.99R
HOUMA*         CLEAR     61  59  94 CALM      29.97R FOG
PORT FOURCHON* SUNNY     68  66  94 NW3       29.98R

$$

MSZ070-080>082-231300-
SOUTHERN MISSISSIPPI

CITY           SKY/WX    TMP DP  RH WIND       PRES   REMARKS
MCCOMB         CLEAR     62  58  86 N5        29.98R
6HR MIN TEMP:  58; 6HR MAX TEMP:  63;

GULFPORT       CLEAR     64  59  83 CALM      29.95R
6HR MIN TEMP:  61; 6HR MAX TEMP:  68;

BILOXI         CLEAR     63  63 100 CALM      29.96R
6HR MIN TEMP:  62; 6HR MAX TEMP:  66;

PASCAGOULA     FOG       60  60 100 CALM      29.96R VSB 1/4
6HR MIN TEMP:  57; 6HR MAX TEMP:  62;

STENNIS ARPT*  CLEAR     52  50  93 CALM      29.95  FOG

$$

COASTAL OBSERVATIONS
LAKE AND NEARSHORE STATIONS

STATION/POSITION TIME  TEMP    WIND        PRES    WAVE
                       AIR SEA DIR/SP/G            HT/PER
                 (UTC) (F)     (DEG/KT/KT) (MB)    (FT/S)
PASCAGOULA       1200   63     350/  3/  4 1013.6
WAVELAND YACHT   1200   64 71  360/  5/  7 1013.4
GRAND ISLE       1200   69 72  320/  2/  2 1014.8
SOUTHWEST PASS   1200   65 60  330/  6/  6 1014.6
NEW CANAL        1200   69 69   10/  7/  8 1014.9
SHELL BEACH      1200   68 67  340/  5/  5 1014.2

OFFSHORE STATIONS

STATION/POSITION TIME  TEMP    WIND        PRES    WAVE
                       AIR SEA DIR/SP/G            HT/PER
                 (UTC) (F)     (DEG/KT/KT) (MB)    (FT/S)
64 S DAUPHIN ISL 1150   68 68  340/  4/  6 1014.1

$$




USA.gov is the U.S. government's official web portal to all federal, state and local government web resources and services.